User: anonymous   Login
Location: Anare
(10.6236°N, 66.6506°W)
Time: 08:29:51
(UTC+00:00)
Language:

YAOGAN 1 - Orbit

View from above orbital plane
View from above orbital plane
View from above satellite
View from above satellite

Ground track
Ground track

The orbit data is extracted from the following two-line orbital elements,

1 29092U 06015A   24164.90435729  .00001506  00000-0  18162-3 0  9993
2 29092  97.8042 190.4269 0001596  92.7955 267.3443 14.85270944980698
Epoch (UTC): 12 June 2024 21:42:16
Eccentricity: 0.0001596
inclination: 97.8042°
perigee height: 611 km
apogee height: 614 km
right ascension of ascending node: 190.4269°
argument of perigee: 92.7955°
revolutions per day: 14.85270944
mean anomaly at epoch: 267.3443°
orbit number at epoch: 98069

The dashed part of the orbit path shows where the satellite is in the earth's shadow,  

DLR